Location: Casteau
(50.5142°N, 4.0161°E)
Time: 20:57:33
(UTC+00:00)

Tiros 1 - Pass Details

Date: 31 July 2021
Orbit: 630 x 663 km, 48.4° (Epoch: 28 September)

Event Time Altitude Azimuth Distance (km) Brightness Sun altitude
Rises 17:37:35 0° 209° (SSW) 2,977 10.8 15.8°
Reaches altitude 10° 17:40:22 10° 194° (SSW) 2,064 9.9 15.4°
Maximum altitude 17:43:59 22° 145° (SE) 1,433 8.6 14.8°
Drops below altitude 10° 17:47:36 10° 95° (E) 2,057 9.2 14.3°
Sets 17:50:21 0° 80° (E) 2,965 10.0 13.9°
